Date,TemperatureHighF,TemperatureAvgF,TemperatureLowF,DewpointHighF,DewpointAvgF,DewpointLowF,HumidityHigh,HumidityAvg,HumidityLow,PressureMaxIn,PressureMinIn,WindSpeedMaxMPH,WindSpeedAvgMPH,GustSpeedMaxMPH,PrecipitationSumIn
2013-7-1,83.1,74.9,72.0,77.1,71.6,69.2,91,89,82,30.03,29.83,6,0,6,0.02
2013-7-2,83.5,74.8,72.0,78.5,71.8,69.5,92,90,82,30.12,29.99,3,0,3,0.00
2013-7-3,89.2,77.5,71.8,79.8,73.6,69.3,92,87,73,30.15,30.07,3,0,3,0.63
2013-7-4,89.8,79.0,73.8,79.4,74.0,70.2,91,85,71,30.18,30.11,4,0,4,0.00
2013-7-5,91.2,79.7,73.6,80.0,74.0,69.5,90,83,68,30.19,30.11,3,0,3,0.00
2013-7-6,95.2,80.9,74.5,80.8,74.8,71.1,91,82,63,30.16,30.09,0,0,0,0.06
2013-7-7,91.8,80.7,73.9,79.4,74.6,70.5,90,82,66,30.17,30.09,7,0,7,0.18
2013-7-8,93.4,81.1,73.9,80.5,75.0,70.4,90,81,64,30.20,30.11,6,0,6,0.00
2013-7-9,92.7,80.8,74.1,79.0,74.3,70.7,90,81,64,30.21,30.09,4,0,4,0.00
2013-7-10,93.4,80.1,72.3,79.2,73.4,68.6,90,81,61,30.11,29.97,3,0,3,0.00
2013-7-11,91.6,80.3,74.1,80.0,73.8,70.1,89,81,66,30.03,29.89,3,-3,3,0.00
2013-7-12,88.9,76.7,73.2,78.6,72.3,69.1,90,86,71,29.94,29.88,4,0,4,0.00
2013-7-13,90.7,77.4,72.3,80.5,73.2,69.1,91,86,71,30.01,29.90,2,-4,2,0.06
2013-7-14,87.3,77.4,72.7,77.0,72.7,69.9,91,86,70,30.14,29.99,4,-4,4,0.00
2013-7-15,92.1,79.5,73.6,81.6,74.5,70.5,91,85,68,30.17,30.10,10,0,10,0.00
2013-7-16,94.8,82.2,75.9,81.4,76.0,72.9,91,82,64,30.22,30.14,9,1,9,0.00
2013-7-17,94.8,82.2,76.8,80.5,75.4,72.3,90,80,62,30.21,30.11,9,1,9,0.00
2013-7-18,93.4,81.0,73.2,78.9,74.3,69.5,90,80,63,30.15,30.06,6,0,6,0.00
2013-7-19,91.2,79.1,73.9,78.7,72.9,70.0,89,82,65,30.13,30.04,2,0,2,0.00
2013-7-20,91.9,77.4,73.2,80.1,72.3,69.1,89,84,68,30.11,30.02,7,0,7,0.00
2013-7-21,92.7,77.9,72.3,79.4,73.3,69.3,91,86,64,30.11,30.02,6,0,6,0.00
2013-7-22,91.9,77.6,74.3,79.5,73.6,70.2,92,87,66,30.13,30.01,9,0,9,0.00
2013-7-23,92.1,78.5,73.0,80.3,73.7,70.3,92,86,68,30.04,29.91,7,0,7,0.00
2013-7-24,87.8,78.7,73.8,78.3,73.6,70.5,91,85,72,29.92,29.81,9,1,9,0.00
2013-7-25,91.6,80.8,73.2,79.3,74.1,70.2,90,81,64,29.96,29.82,6,-3,6,0.00
2013-7-26,92.8,81.7,74.8,80.6,75.7,71.4,90,83,66,30.03,29.93,10,1,10,0.00
2013-7-27,95.7,80.2,75.0,87.8,75.3,71.6,91,85,69,30.01,29.89,6,-7,6,3.61
2013-7-28,90.3,66.5,73.6,81.3,46.3,-99.9,92,71,74,30.06,29.92,4,-164,4,0.00
2013-7-29,90.7,80.6,71.4,80.0,74.5,68.7,92,82,69,30.16,30.03,3,0,3,0.00
2013-7-30,92.8,81.8,74.5,81.2,75.9,71.7,91,83,67,30.19,30.11,2,0,2,0.00
2013-7-31,86.2,76.7,72.7,80.1,72.6,-99.9,91,89,81,30.14,29.90,4,-7,4,0.73